SYN002 KLGA-KDCA

Flight info

Callsign SYN002
Flight time 0h 45m
Altitude 28000
Route BIGGY Q75 MXE CLIPR3
Aircraft BCS3/M-SBDE2E3GIRWXY/LB1

Departure

Time 2026-05-06 01:09
Airport LaGuardia Airport (KLGA)

Arrival

Time 2026-05-06 01:54
Airport Ronald Reagan Washington National Airport (KDCA)
Time Latitude Longitude Altitude Speed Heading
2026-05-06 00:42 40.77326 -73.86524 17 ft 0 kts 160°
2026-05-06 01:00 40.77327 -73.86525 17 ft 2 kts 160°
2026-05-06 01:01 40.77335 -73.86528 11 ft 0 kts 176°
2026-05-06 01:01 40.77341 -73.86529 11 ft 3 kts 166°
2026-05-06 01:01 40.77359 -73.86540 18 ft 3 kts 134°
2026-05-06 01:01 40.77369 -73.86561 19 ft 3 kts 102°
2026-05-06 01:02 40.77370 -73.86587 20 ft 3 kts 71°
2026-05-06 01:02 40.77369 -73.86592 20 ft 0 kts 63°
2026-05-06 01:03 40.77371 -73.86586 17 ft 2 kts 63°
2026-05-06 01:03 40.77372 -73.86584 17 ft 0 kts 63°
2026-05-06 01:04 40.77373 -73.86582 17 ft 1 kts 51°
2026-05-06 01:04 40.77394 -73.86573 16 ft 8 kts 13°
2026-05-06 01:04 40.77490 -73.86576 15 ft 18 kts 342°
2026-05-06 01:04 40.77565 -73.86698 16 ft 17 kts 304°
2026-05-06 01:05 40.77629 -73.86828 17 ft 17 kts 302°
2026-05-06 01:05 40.77705 -73.86988 20 ft 16 kts 302°
2026-05-06 01:05 40.77762 -73.87107 22 ft 15 kts 302°
2026-05-06 01:05 40.77819 -73.87226 22 ft 16 kts 302°
2026-05-06 01:06 40.77876 -73.87347 24 ft 15 kts 302°
2026-05-06 01:06 40.77925 -73.87450 23 ft 12 kts 302°
2026-05-06 01:06 40.77973 -73.87550 21 ft 14 kts 302°
2026-05-06 01:06 40.78024 -73.87658 21 ft 14 kts 302°
2026-05-06 01:07 40.78079 -73.87773 20 ft 16 kts 302°
2026-05-06 01:07 40.78121 -73.87843 21 ft 5 kts 326°
2026-05-06 01:07 40.78156 -73.87862 21 ft 6 kts 342°
2026-05-06 01:07 40.78183 -73.87861 21 ft 3 kts 27°
2026-05-06 01:08 40.78204 -73.87831 21 ft 6 kts 66°
2026-05-06 01:08 40.78205 -73.87800 20 ft 3 kts 116°
2026-05-06 01:08 40.78117 -73.87610 20 ft 55 kts 122°
2026-05-06 01:08 40.77803 -73.86955 22 ft 113 kts 122°
2026-05-06 01:09 40.77311 -73.85967 399 ft 127 kts 127°
2026-05-06 01:09 40.76866 -73.84915 878 ft 142 kts 125°
2026-05-06 01:09 40.76261 -73.83921 1322 ft 138 kts 165°
2026-05-06 01:09 40.75393 -73.83597 2078 ft 125 kts 181°
2026-05-06 01:10 40.74508 -73.83401 2572 ft 138 kts 181°
2026-05-06 01:10 40.73499 -73.83176 2991 ft 156 kts 180°
2026-05-06 01:10 40.72365 -73.82889 3417 ft 174 kts 180°
2026-05-06 01:10 40.71181 -73.83114 3834 ft 178 kts 214°
2026-05-06 01:11 40.70222 -73.84214 4306 ft 191 kts 229°
2026-05-06 01:11 40.69345 -73.85508 4833 ft 204 kts 231°
2026-05-06 01:11 40.68419 -73.86911 5675 ft 206 kts 232°
2026-05-06 01:11 40.67596 -73.88495 6274 ft 218 kts 251°
2026-05-06 01:12 40.67508 -73.90544 6802 ft 238 kts 279°
2026-05-06 01:12 40.68222 -73.92623 7320 ft 257 kts 296°
2026-05-06 01:12 40.69050 -73.94711 8053 ft 257 kts 282°
2026-05-06 01:12 40.69100 -73.97026 8841 ft 257 kts 257°
2026-05-06 01:13 40.68770 -73.98537 9318 ft 261 kts 252°
2026-05-06 01:13 40.68166 -74.00841 10131 ft 266 kts 251°
2026-05-06 01:13 40.67547 -74.03164 10706 ft 281 kts 251°
2026-05-06 01:13 40.66884 -74.05648 11156 ft 294 kts 251°
2026-05-06 01:14 40.65491 -74.10851 12442 ft 305 kts 250°
2026-05-06 01:14 40.64781 -74.13498 13139 ft 309 kts 250°
2026-05-06 01:14 40.64062 -74.16179 13833 ft 312 kts 250°
2026-05-06 01:15 40.63336 -74.18882 14497 ft 314 kts 250°
2026-05-06 01:15 40.62604 -74.21605 15128 ft 316 kts 250°
2026-05-06 01:15 40.61868 -74.24340 15775 ft 319 kts 250°
2026-05-06 01:15 40.61126 -74.27094 16422 ft 321 kts 249°
2026-05-06 01:16 40.60377 -74.29871 17070 ft 323 kts 249°
2026-05-06 01:16 40.59623 -74.32662 17741 ft 325 kts 249°
2026-05-06 01:16 40.58861 -74.35482 18333 ft 328 kts 249°
2026-05-06 01:16 40.58094 -74.38315 18896 ft 330 kts 249°
2026-05-06 01:17 40.57320 -74.41175 19441 ft 333 kts 249°
2026-05-06 01:17 40.56539 -74.44054 20010 ft 336 kts 249°
2026-05-06 01:17 40.55751 -74.46956 20576 ft 338 kts 249°
2026-05-06 01:17 40.54957 -74.49876 21123 ft 340 kts 249°
2026-05-06 01:18 40.54156 -74.52816 21632 ft 344 kts 249°
2026-05-06 01:18 40.53339 -74.55817 21862 ft 353 kts 249°
2026-05-06 01:18 40.52514 -74.58843 21883 ft 348 kts 249°
2026-05-06 01:18 40.51707 -74.61799 21877 ft 341 kts 249°
2026-05-06 01:19 40.50902 -74.64746 21875 ft 346 kts 249°
2026-05-06 01:19 40.50084 -74.67734 21872 ft 347 kts 249°
2026-05-06 01:19 40.49274 -74.70694 21871 ft 343 kts 249°
2026-05-06 01:19 40.48462 -74.73654 21866 ft 344 kts 249°
2026-05-06 01:20 40.47651 -74.76610 21868 ft 345 kts 249°
2026-05-06 01:20 40.46837 -74.79572 21868 ft 344 kts 249°
2026-05-06 01:20 40.46025 -74.82524 21893 ft 344 kts 249°
2026-05-06 01:20 40.45213 -74.85474 21894 ft 344 kts 248°
2026-05-06 01:21 40.44399 -74.88428 21894 ft 344 kts 248°
2026-05-06 01:21 40.43585 -74.91383 21894 ft 344 kts 248°
2026-05-06 01:21 40.42773 -74.94327 21889 ft 343 kts 248°
2026-05-06 01:21 40.41746 -74.97138 21892 ft 342 kts 234°
2026-05-06 01:22 40.40251 -74.99565 21897 ft 342 kts 229°
2026-05-06 01:22 40.38656 -75.01878 21897 ft 342 kts 228°
2026-05-06 01:22 40.37035 -75.04167 21895 ft 343 kts 227°
2026-05-06 01:22 40.35412 -75.06452 21893 ft 342 kts 227°
2026-05-06 01:23 40.33811 -75.08701 21893 ft 341 kts 227°
2026-05-06 01:23 40.32188 -75.10980 21892 ft 343 kts 227°
2026-05-06 01:23 40.30563 -75.13259 21896 ft 342 kts 227°
2026-05-06 01:23 40.28940 -75.15531 21895 ft 342 kts 227°
2026-05-06 01:24 40.27316 -75.17804 21897 ft 342 kts 227°
2026-05-06 01:24 40.25688 -75.20081 21892 ft 342 kts 227°
2026-05-06 01:24 40.24063 -75.22351 21913 ft 341 kts 227°
2026-05-06 01:24 40.22439 -75.24618 21912 ft 342 kts 227°
2026-05-06 01:25 40.20815 -75.26884 21912 ft 342 kts 227°
2026-05-06 01:25 40.19187 -75.29153 21911 ft 341 kts 227°
2026-05-06 01:25 40.17564 -75.31414 21915 ft 342 kts 227°
2026-05-06 01:25 40.15937 -75.33678 21915 ft 341 kts 227°
2026-05-06 01:26 40.14313 -75.35936 21919 ft 341 kts 227°
2026-05-06 01:26 40.12686 -75.38198 21918 ft 342 kts 227°
2026-05-06 01:26 40.11057 -75.40460 21913 ft 341 kts 227°
2026-05-06 01:26 40.09434 -75.42713 21911 ft 341 kts 227°
2026-05-06 01:27 40.07805 -75.44970 21916 ft 342 kts 227°
2026-05-06 01:27 40.06176 -75.47229 21922 ft 341 kts 227°
2026-05-06 01:27 40.04549 -75.49480 21921 ft 341 kts 227°
2026-05-06 01:27 40.02922 -75.51732 21922 ft 342 kts 227°
2026-05-06 01:28 40.01292 -75.53985 21919 ft 341 kts 227°
2026-05-06 01:28 39.99663 -75.56236 21920 ft 341 kts 227°
2026-05-06 01:28 39.98032 -75.58487 21919 ft 342 kts 227°
2026-05-06 01:28 39.96398 -75.60740 21925 ft 342 kts 227°
2026-05-06 01:29 39.94764 -75.62993 21921 ft 342 kts 227°
2026-05-06 01:29 39.93131 -75.65242 21924 ft 342 kts 227°
2026-05-06 01:29 39.91567 -75.67571 21925 ft 341 kts 233°
2026-05-06 01:29 39.90199 -75.70109 21922 ft 342 kts 236°
2026-05-06 01:30 39.88869 -75.72671 21901 ft 341 kts 236°
2026-05-06 01:30 39.87541 -75.75231 21903 ft 341 kts 236°
2026-05-06 01:30 39.86208 -75.77798 21907 ft 342 kts 236°
2026-05-06 01:30 39.84873 -75.80363 21893 ft 341 kts 236°
2026-05-06 01:31 39.83542 -75.82917 21900 ft 341 kts 236°
2026-05-06 01:31 39.82208 -75.85475 21900 ft 342 kts 236°
2026-05-06 01:31 39.80871 -75.88037 21896 ft 342 kts 236°
2026-05-06 01:31 39.79538 -75.90588 21899 ft 341 kts 236°
2026-05-06 01:32 39.78200 -75.93145 21901 ft 343 kts 236°
2026-05-06 01:32 39.76846 -75.95732 21396 ft 350 kts 236°
2026-05-06 01:32 39.75477 -75.98343 20819 ft 350 kts 236°
2026-05-06 01:32 39.74110 -76.00948 20331 ft 347 kts 236°
2026-05-06 01:33 39.72753 -76.03532 19852 ft 344 kts 236°
2026-05-06 01:33 39.71410 -76.06087 19407 ft 341 kts 236°
2026-05-06 01:33 39.70082 -76.08609 18968 ft 337 kts 236°
2026-05-06 01:33 39.68760 -76.11118 18525 ft 335 kts 236°
2026-05-06 01:34 39.67471 -76.13567 18095 ft 331 kts 236°
2026-05-06 01:34 39.66180 -76.16015 17669 ft 326 kts 236°
2026-05-06 01:34 39.64909 -76.18424 17254 ft 322 kts 236°
2026-05-06 01:34 39.63648 -76.20814 16840 ft 319 kts 236°
2026-05-06 01:35 39.62395 -76.23185 16424 ft 318 kts 236°
2026-05-06 01:35 39.61150 -76.25539 16011 ft 316 kts 236°
2026-05-06 01:35 39.59910 -76.27882 15603 ft 315 kts 236°
2026-05-06 01:35 39.58508 -76.30050 15184 ft 315 kts 223°
2026-05-06 01:36 39.56757 -76.31769 14771 ft 316 kts 217°
2026-05-06 01:36 39.54946 -76.33374 14350 ft 315 kts 217°
2026-05-06 01:36 39.53132 -76.34955 13947 ft 314 kts 216°
2026-05-06 01:36 39.51320 -76.36531 13515 ft 313 kts 216°
2026-05-06 01:37 39.49514 -76.38101 13070 ft 311 kts 216°
2026-05-06 01:37 39.47728 -76.39653 12658 ft 309 kts 216°
2026-05-06 01:37 39.45940 -76.41206 12247 ft 309 kts 216°
2026-05-06 01:37 39.44166 -76.42743 12048 ft 304 kts 216°
2026-05-06 01:38 39.42412 -76.44266 12026 ft 307 kts 216°
2026-05-06 01:38 39.40667 -76.45777 12011 ft 294 kts 216°
2026-05-06 01:38 39.39011 -76.47211 12013 ft 279 kts 216°
2026-05-06 01:38 39.37414 -76.48594 12023 ft 277 kts 216°
2026-05-06 01:39 39.35798 -76.49994 12035 ft 283 kts 216°
2026-05-06 01:39 39.34115 -76.51453 12027 ft 297 kts 216°
2026-05-06 01:39 39.32372 -76.52961 12036 ft 306 kts 216°
2026-05-06 01:39 39.30593 -76.54501 12030 ft 307 kts 216°
2026-05-06 01:40 39.28823 -76.56028 12025 ft 306 kts 216°
2026-05-06 01:40 39.27050 -76.57558 11996 ft 307 kts 216°
2026-05-06 01:40 39.25273 -76.59089 11997 ft 307 kts 216°
2026-05-06 01:40 39.23501 -76.60615 11977 ft 304 kts 216°
2026-05-06 01:41 39.21741 -76.62130 11470 ft 304 kts 216°
2026-05-06 01:41 39.20024 -76.63606 11398 ft 289 kts 216°
2026-05-06 01:41 39.18390 -76.65009 11342 ft 275 kts 216°
2026-05-06 01:41 39.16845 -76.66437 10974 ft 273 kts 222°
2026-05-06 01:42 39.15441 -76.68057 10651 ft 271 kts 224°
2026-05-06 01:42 39.14059 -76.69702 10301 ft 269 kts 224°
2026-05-06 01:42 39.12691 -76.71330 10104 ft 267 kts 224°
2026-05-06 01:42 39.11327 -76.72949 9990 ft 265 kts 224°
2026-05-06 01:43 39.09967 -76.74569 9572 ft 266 kts 224°
2026-05-06 01:43 39.08612 -76.76177 9246 ft 264 kts 224°
2026-05-06 01:43 39.07274 -76.77764 8894 ft 261 kts 224°
2026-05-06 01:43 39.05949 -76.79333 8556 ft 258 kts 224°
2026-05-06 01:44 39.04636 -76.80888 8189 ft 256 kts 224°
2026-05-06 01:44 39.03338 -76.82422 7833 ft 253 kts 224°
2026-05-06 01:44 39.02054 -76.83940 7494 ft 250 kts 223°
2026-05-06 01:44 39.00778 -76.85447 7173 ft 246 kts 223°
2026-05-06 01:45 38.99537 -76.86911 6831 ft 244 kts 223°
2026-05-06 01:45 38.98297 -76.88388 6527 ft 240 kts 225°
2026-05-06 01:45 38.97493 -76.90259 6119 ft 244 kts 254°
2026-05-06 01:45 38.97358 -76.92433 6024 ft 245 kts 264°
2026-05-06 01:46 38.97385 -76.94647 6002 ft 251 kts 266°
2026-05-06 01:46 38.97449 -76.96901 5883 ft 252 kts 266°
2026-05-06 01:46 38.97523 -76.99133 5756 ft 249 kts 267°
2026-05-06 01:46 38.97638 -77.01359 5579 ft 255 kts 275°
2026-05-06 01:47 38.98412 -77.03468 5341 ft 269 kts 301°
2026-05-06 01:47 38.99697 -77.05226 5113 ft 272 kts 308°
2026-05-06 01:47 39.01075 -77.06904 4864 ft 271 kts 309°
2026-05-06 01:47 39.02448 -77.08557 4616 ft 271 kts 309°
2026-05-06 01:48 39.03809 -77.10232 4364 ft 268 kts 303°
2026-05-06 01:48 39.04523 -77.12304 4116 ft 247 kts 268°
2026-05-06 01:48 39.04177 -77.14360 3891 ft 235 kts 242°
2026-05-06 01:48 39.03458 -77.16220 3641 ft 229 kts 240°
2026-05-06 01:49 39.02758 -77.18025 3385 ft 223 kts 240°
2026-05-06 01:49 39.02072 -77.19778 3144 ft 216 kts 240°
2026-05-06 01:49 39.01110 -77.21135 3023 ft 204 kts 207°
2026-05-06 01:49 38.99724 -77.21266 3010 ft 208 kts 169°
2026-05-06 01:50 38.98517 -77.20137 3013 ft 230 kts 136°
2026-05-06 01:50 38.97676 -77.18329 3008 ft 239 kts 127°
2026-05-06 01:50 38.96915 -77.16411 2838 ft 240 kts 127°
2026-05-06 01:50 38.95946 -77.14807 2640 ft 217 kts 145°
2026-05-06 01:51 38.94881 -77.13534 2382 ft 202 kts 148°
2026-05-06 01:51 38.93875 -77.12381 2143 ft 186 kts 148°
2026-05-06 01:51 38.92890 -77.11498 1924 ft 163 kts 160°
2026-05-06 01:51 38.91945 -77.10874 1709 ft 141 kts 162°
2026-05-06 01:52 38.91161 -77.10162 1484 ft 137 kts 144°
2026-05-06 01:52 38.90639 -77.09145 1403 ft 147 kts 124°
2026-05-06 01:52 38.90256 -77.07779 1153 ft 167 kts 125°
2026-05-06 01:52 38.89586 -77.06600 918 ft 162 kts 138°
2026-05-06 01:53 38.88843 -77.05557 708 ft 151 kts 138°
2026-05-06 01:53 38.88158 -77.04623 506 ft 143 kts 137°
2026-05-06 01:53 38.87321 -77.03991 316 ft 135 kts 169°
2026-05-06 01:53 38.86393 -77.03875 120 ft 132 kts 179°
2026-05-06 01:54 38.85538 -77.03816 25 ft 104 kts 173°
2026-05-06 01:54 38.85005 -77.03761 22 ft 34 kts 176°
2026-05-06 01:54 38.84909 -77.03780 21 ft 3 kts 221°
2026-05-06 01:54 38.84893 -77.03804 20 ft 4 kts 237°
2026-05-06 01:55 38.84881 -77.03847 20 ft 6 kts 260°
2026-05-06 01:55 38.84881 -77.03852 20 ft 0 kts 260°
2026-05-06 01:55 38.84880 -77.03856 20 ft 3 kts 261°
2026-05-06 01:55 38.84880 -77.03912 22 ft 7 kts 290°
2026-05-06 01:56 38.84899 -77.03944 20 ft 1 kts 334°
2026-05-06 01:56 38.84911 -77.03950 20 ft 2 kts 339°
2026-05-06 01:56 38.84931 -77.03959 22 ft 4 kts 343°
2026-05-06 01:56 38.84959 -77.03968 20 ft 5 kts 345°
2026-05-06 01:57 38.84977 -77.03977 20 ft 0 kts 314°
2026-05-06 01:57 38.84980 -77.03983 20 ft 2 kts 307°
2026-05-06 01:57 38.85008 -77.03996 20 ft 6 kts
2026-05-06 01:57 38.85026 -77.03999 20 ft 2 kts 339°
2026-05-06 01:58 38.85031 -77.04008 20 ft 1 kts 306°
2026-05-06 01:58 38.85035 -77.04032 20 ft 4 kts 272°
2026-05-06 01:58 38.85035 -77.04043 20 ft 0 kts 272°